owner,sensor,date,latitude,longitude,relative_humidity,qcFlag 
TABS,ioos:station:wmo:42046:1,2008-12-01T00:00:00Z,27.8903,-94.0367,-999.0,22222222 
TABS,ioos:station:wmo:42046:1,2008-12-01T00:30:00Z,27.8903,-94.0367,-999.0,22222222 
TABS,ioos:station:wmo:42046:1,2008-12-01T01:00:00Z,27.8903,-94.0367,-999.0,22222222 
TABS,ioos:station:wmo:42046:1,2008-12-01T01:30:00Z,27.8903,-94.0367,-999.0,22222222 
TABS,ioos:station:wmo:42046:1,2008-12-01T02:00:00Z,27.8903,-94.0367,-999.0,22222222 
TABS,ioos:station:wmo:42046:1,2008-12-01T02:30:00Z,27.8903,-94.0367,-999.0,22222222 
TABS,ioos:station:wmo:42046:1,2008-12-01T03:00:00Z,27.8903,-94.0367,-999.0,22222222 
TABS,ioos:station:wmo:42046:1,2008-12-01T03:30:00Z,27.8903,-94.0367,-999.0,22222222 
TABS,ioos:station:wmo:42046:1,2008-12-01T04:00:00Z,27.8903,-94.0367,-999.0,22222222 
TABS,ioos:station:wmo:42046:1,2008-12-01T04:30:00Z,27.8903,-94.0367,-999.0,22222222 
TABS,ioos:station:wmo:42046:1,2008-12-01T05:00:00Z,27.8903,-94.0367,-999.0,22222222 
TABS,ioos:station:wmo:42046:1,2008-12-01T05:30:00Z,27.8903,-94.0367,-999.0,22222222 
TABS,ioos:station:wmo:42046:1,2008-12-01T06:00:00Z,27.8903,-94.0367,-999.0,22222222 
TABS,ioos:station:wmo:42046:1,2008-12-01T06:30:00Z,27.8903,-94.0367,-999.0,22222222 
TABS,ioos:station:wmo:42046:1,2008-12-01T07:00:00Z,27.8903,-94.0367,-999.0,22222222 
TABS,ioos:station:wmo:42046:1,2008-12-01T07:30:00Z,27.8903,-94.0367,-999.0,22222222 
TABS,ioos:station:wmo:42046:1,2008-12-01T08:00:00Z,27.8903,-94.0367,-999.0,22222222 
TABS,ioos:station:wmo:42046:1,2008-12-01T08:30:00Z,27.8903,-94.0367,-999.0,22222222 
TABS,ioos:station:wmo:42046:1,2008-12-01T09:00:00Z,27.8903,-94.0367,-999.0,22222222 
TABS,ioos:station:wmo:42046:1,2008-12-01T09:30:00Z,27.8903,-94.0367,-999.0,22222222 
TABS,ioos:station:wmo:42046:1,2008-12-01T10:00:00Z,27.8903,-94.0367,-999.0,22222222 
TABS,ioos:station:wmo:42046:1,2008-12-01T10:30:00Z,27.8903,-94.0367,-999.0,22222222 
TABS,ioos:station:wmo:42046:1,2008-12-01T11:00:00Z,27.8903,-94.0367,-999.0,22222222 
TABS,ioos:station:wmo:42046:1,2008-12-01T11:30:00Z,27.8903,-94.0367,-999.0,22222222 
TABS,ioos:station:wmo:42046:1,2008-12-01T12:00:00Z,27.8903,-94.0367,-999.0,22222222 
TABS,ioos:station:wmo:42046:1,2008-12-01T12:30:00Z,27.8903,-94.0367,-999.0,22222222 
TABS,ioos:station:wmo:42046:1,2008-12-01T13:00:00Z,27.8903,-94.0367,-999.0,22222222 
TABS,ioos:station:wmo:42046:1,2008-12-01T13:30:00Z,27.8903,-94.0367,-999.0,22222222 
TABS,ioos:station:wmo:42046:1,2008-12-01T14:00:00Z,27.8903,-94.0367,-999.0,22222222 
TABS,ioos:station:wmo:42046:1,2008-12-01T14:30:00Z,27.8903,-94.0367,-999.0,22222222 
TABS,ioos:station:wmo:42046:1,2008-12-01T15:00:00Z,27.8903,-94.0367,-999.0,22222222 
TABS,ioos:station:wmo:42046:1,2008-12-01T15:30:00Z,27.8903,-94.0367,-999.0,22222222 
TABS,ioos:station:wmo:42046:1,2008-12-01T16:00:00Z,27.8903,-94.0367,-999.0,22222222 
TABS,ioos:station:wmo:42046:1,2008-12-01T16:30:00Z,27.8903,-94.0367,-999.0,22222222 
TABS,ioos:station:wmo:42046:1,2008-12-01T17:00:00Z,27.8903,-94.0367,-999.0,22222222 
TABS,ioos:station:wmo:42046:1,2008-12-01T17:30:00Z,27.8903,-94.0367,-999.0,22222222 
TABS,ioos:station:wmo:42046:1,2008-12-01T18:00:00Z,27.8903,-94.0367,-999.0,22222222 
TABS,ioos:station:wmo:42046:1,2008-12-01T18:30:00Z,27.8903,-94.0367,-999.0,22222222 
TABS,ioos:station:wmo:42046:1,2008-12-01T19:00:00Z,27.8903,-94.0367,-999.0,22222222 
TABS,ioos:station:wmo:42046:1,2008-12-01T19:30:00Z,27.8903,-94.0367,-999.0,22222222 
TABS,ioos:station:wmo:42046:1,2008-12-01T20:00:00Z,27.8903,-94.0367,-999.0,22222222 
TABS,ioos:station:wmo:42046:1,2008-12-01T20:30:00Z,27.8903,-94.0367,-999.0,22222222 
TABS,ioos:station:wmo:42046:1,2008-12-01T21:00:00Z,27.8903,-94.0367,-999.0,22222222 
TABS,ioos:station:wmo:42046:1,2008-12-01T21:30:00Z,27.8903,-94.0367,-999.0,22222222 
TABS,ioos:station:wmo:42046:1,2008-12-01T22:00:00Z,27.8903,-94.0367,-999.0,22222222 
TABS,ioos:station:wmo:42046:1,2008-12-01T22:30:00Z,27.8903,-94.0367,-999.0,22222222 
TABS,ioos:station:wmo:42046:1,2008-12-01T23:00:00Z,27.8903,-94.0367,-999.0,22222222 
TABS,ioos:station:wmo:42046:1,2008-12-01T23:30:00Z,27.8903,-94.0367,-999.0,22222222 
TABS,ioos:station:wmo:42046:1,2008-12-02T00:00:00Z,27.8903,-94.0367,-999.0,22222222 
TABS,ioos:station:wmo:42046:1,2008-12-02T00:30:00Z,27.8903,-94.0367,-999.0,22222222 
TABS,ioos:station:wmo:42046:1,2008-12-02T01:00:00Z,27.8903,-94.0367,-999.0,22222222 
TABS,ioos:station:wmo:42046:1,2008-12-02T01:30:00Z,27.8903,-94.0367,-999.0,22222222 
TABS,ioos:station:wmo:42046:1,2008-12-02T02:00:00Z,27.8903,-94.0367,-999.0,22222222 
TABS,ioos:station:wmo:42046:1,2008-12-02T02:30:00Z,27.8903,-94.0367,-999.0,22222222 
TABS,ioos:station:wmo:42046:1,2008-12-02T03:00:00Z,27.8903,-94.0367,-999.0,22222222 
TABS,ioos:station:wmo:42046:1,2008-12-02T03:30:00Z,27.8903,-94.0367,-999.0,22222222 
TABS,ioos:station:wmo:42046:1,2008-12-02T04:00:00Z,27.8903,-94.0367,-999.0,22222222 
TABS,ioos:station:wmo:42046:1,2008-12-02T04:30:00Z,27.8903,-94.0367,-999.0,22222222 
TABS,ioos:station:wmo:42046:1,2008-12-02T05:00:00Z,27.8903,-94.0367,4.7,22222222 
TABS,ioos:station:wmo:42046:1,2008-12-02T05:00:00Z,27.8903,-94.0367,4.7,11111222 
TABS,ioos:station:wmo:42046:1,2008-12-02T05:30:00Z,27.8903,-94.0367,-999.0,22222222 
TABS,ioos:station:wmo:42046:1,2008-12-02T06:00:00Z,27.8903,-94.0367,-999.0,22222222 
TABS,ioos:station:wmo:42046:1,2008-12-02T06:30:00Z,27.8903,-94.0367,-999.0,22222222 
TABS,ioos:station:wmo:42046:1,2008-12-02T07:00:00Z,27.8903,-94.0367,-999.0,22222222 
TABS,ioos:station:wmo:42046:1,2008-12-02T07:30:00Z,27.8903,-94.0367,2.2,22222222 
TABS,ioos:station:wmo:42046:1,2008-12-02T07:30:00Z,27.8903,-94.0367,2.2,11111222 
TABS,ioos:station:wmo:42046:1,2008-12-02T08:00:00Z,27.8903,-94.0367,-999.0,22222222 
TABS,ioos:station:wmo:42046:1,2008-12-02T08:30:00Z,27.8903,-94.0367,-999.0,22222222 
TABS,ioos:station:wmo:42046:1,2008-12-02T09:00:00Z,27.8903,-94.0367,-999.0,22222222 
TABS,ioos:station:wmo:42046:1,2008-12-02T09:30:00Z,27.8903,-94.0367,1.4,22222222 
TABS,ioos:station:wmo:42046:1,2008-12-02T09:30:00Z,27.8903,-94.0367,1.4,11111222 
TABS,ioos:station:wmo:42046:1,2008-12-02T10:00:00Z,27.8903,-94.0367,-999.0,22222222 
TABS,ioos:station:wmo:42046:1,2008-12-02T10:30:00Z,27.8903,-94.0367,1.2,22222222 
TABS,ioos:station:wmo:42046:1,2008-12-02T10:30:00Z,27.8903,-94.0367,1.2,11111222 
TABS,ioos:station:wmo:42046:1,2008-12-02T11:00:00Z,27.8903,-94.0367,2.2,22222222 
TABS,ioos:station:wmo:42046:1,2008-12-02T11:00:00Z,27.8903,-94.0367,2.2,11111222 
TABS,ioos:station:wmo:42046:1,2008-12-02T11:30:00Z,27.8903,-94.0367,-999.0,22222222 
TABS,ioos:station:wmo:42046:1,2008-12-02T12:00:00Z,27.8903,-94.0367,-999.0,22222222 
TABS,ioos:station:wmo:42046:1,2008-12-02T12:30:00Z,27.8903,-94.0367,7.9,22222222 
TABS,ioos:station:wmo:42046:1,2008-12-02T12:30:00Z,27.8903,-94.0367,7.9,11111222 
TABS,ioos:station:wmo:42046:1,2008-12-02T13:00:00Z,27.8903,-94.0367,-999.0,22222222 
TABS,ioos:station:wmo:42046:1,2008-12-02T13:30:00Z,27.8903,-94.0367,47.0,22222222 
TABS,ioos:station:wmo:42046:1,2008-12-02T13:30:00Z,27.8903,-94.0367,47.0,11111222 
TABS,ioos:station:wmo:42046:1,2008-12-02T14:00:00Z,27.8903,-94.0367,-999.0,22222222 
TABS,ioos:station:wmo:42046:1,2008-12-02T14:30:00Z,27.8903,-94.0367,38.8,22222222 
TABS,ioos:station:wmo:42046:1,2008-12-02T14:30:00Z,27.8903,-94.0367,38.8,11111222 
TABS,ioos:station:wmo:42046:1,2008-12-02T15:00:00Z,27.8903,-94.0367,55.1,22222222 
TABS,ioos:station:wmo:42046:1,2008-12-02T15:00:00Z,27.8903,-94.0367,55.1,11111222 
TABS,ioos:station:wmo:42046:1,2008-12-02T15:30:00Z,27.8903,-94.0367,-999.0,22222222 
TABS,ioos:station:wmo:42046:1,2008-12-02T16:00:00Z,27.8903,-94.0367,-999.0,22222222 
TABS,ioos:station:wmo:42046:1,2008-12-02T16:30:00Z,27.8903,-94.0367,-999.0,22222222 
TABS,ioos:station:wmo:42046:1,2008-12-02T17:00:00Z,27.8903,-94.0367,-999.0,22222222 
TABS,ioos:station:wmo:42046:1,2008-12-02T17:30:00Z,27.8903,-94.0367,-999.0,22222222 
TABS,ioos:station:wmo:42046:1,2008-12-02T18:00:00Z,27.8903,-94.0367,-999.0,22222222 
TABS,ioos:station:wmo:42046:1,2008-12-02T18:30:00Z,27.8903,-94.0367,-999.0,22222222 
TABS,ioos:station:wmo:42046:1,2008-12-02T19:00:00Z,27.8903,-94.0367,-999.0,22222222 
TABS,ioos:station:wmo:42046:1,2008-12-02T19:30:00Z,27.8903,-94.0367,-999.0,22222222 
TABS,ioos:station:wmo:42046:1,2008-12-02T20:00:00Z,27.8903,-94.0367,-999.0,22222222 
TABS,ioos:station:wmo:42046:1,2008-12-02T20:30:00Z,27.8903,-94.0367,-999.0,22222222 
TABS,ioos:station:wmo:42046:1,2008-12-02T21:00:00Z,27.8903,-94.0367,-999.0,22222222 
TABS,ioos:station:wmo:42046:1,2008-12-02T21:30:00Z,27.8903,-94.0367,-999.0,22222222 
TABS,ioos:station:wmo:42046:1,2008-12-02T22:00:00Z,27.8903,-94.0367,-999.0,22222222 
TABS,ioos:station:wmo:42046:1,2008-12-02T22:30:00Z,27.8903,-94.0367,-999.0,22222222 
TABS,ioos:station:wmo:42046:1,2008-12-02T23:00:00Z,27.8903,-94.0367,-999.0,22222222 
TABS,ioos:station:wmo:42046:1,2008-12-02T23:30:00Z,27.8903,-94.0367,-999.0,22222222 
TABS,ioos:station:wmo:42046:1,2008-12-03T00:00:00Z,27.8903,-94.0367,-999.0,22222222 
TABS,ioos:station:wmo:42046:1,2008-12-03T00:30:00Z,27.8903,-94.0367,-999.0,22222222 
TABS,ioos:station:wmo:42046:1,2008-12-03T01:00:00Z,27.8903,-94.0367,-999.0,22222222 
TABS,ioos:station:wmo:42046:1,2008-12-03T01:30:00Z,27.8903,-94.0367,-999.0,22222222 
TABS,ioos:station:wmo:42046:1,2008-12-03T02:00:00Z,27.8903,-94.0367,-999.0,22222222 
TABS,ioos:station:wmo:42046:1,2008-12-03T02:30:00Z,27.8903,-94.0367,-999.0,22222222 
TABS,ioos:station:wmo:42046:1,2008-12-03T03:00:00Z,27.8903,-94.0367,-999.0,22222222 
TABS,ioos:station:wmo:42046:1,2008-12-03T03:30:00Z,27.8903,-94.0367,-999.0,22222222 
TABS,ioos:station:wmo:42046:1,2008-12-03T04:00:00Z,27.8903,-94.0367,-999.0,22222222 
TABS,ioos:station:wmo:42046:1,2008-12-03T04:30:00Z,27.8903,-94.0367,-999.0,22222222 
TABS,ioos:station:wmo:42046:1,2008-12-03T05:00:00Z,27.8903,-94.0367,-999.0,22222222 
TABS,ioos:station:wmo:42046:1,2008-12-03T05:30:00Z,27.8903,-94.0367,-999.0,22222222 
TABS,ioos:station:wmo:42046:1,2008-12-03T06:00:00Z,27.8903,-94.0367,-999.0,22222222 
TABS,ioos:station:wmo:42046:1,2008-12-03T06:30:00Z,27.8903,-94.0367,-999.0,22222222 
TABS,ioos:station:wmo:42046:1,2008-12-03T07:00:00Z,27.8903,-94.0367,-999.0,22222222 
TABS,ioos:station:wmo:42046:1,2008-12-03T07:30:00Z,27.8903,-94.0367,-999.0,22222222 
TABS,ioos:station:wmo:42046:1,2008-12-03T08:00:00Z,27.8903,-94.0367,-999.0,22222222 
TABS,ioos:station:wmo:42046:1,2008-12-03T08:30:00Z,27.8903,-94.0367,-999.0,22222222 
TABS,ioos:station:wmo:42046:1,2008-12-03T09:00:00Z,27.8903,-94.0367,-999.0,22222222 
TABS,ioos:station:wmo:42046:1,2008-12-03T09:30:00Z,27.8903,-94.0367,-999.0,22222222 
TABS,ioos:station:wmo:42046:1,2008-12-03T10:00:00Z,27.8903,-94.0367,-999.0,22222222 
TABS,ioos:station:wmo:42046:1,2008-12-03T10:30:00Z,27.8903,-94.0367,-999.0,22222222 
TABS,ioos:station:wmo:42046:1,2008-12-03T11:00:00Z,27.8903,-94.0367,-999.0,22222222 
TABS,ioos:station:wmo:42046:1,2008-12-03T11:30:00Z,27.8903,-94.0367,-999.0,22222222 
TABS,ioos:station:wmo:42046:1,2008-12-03T12:00:00Z,27.8903,-94.0367,-999.0,22222222 
TABS,ioos:station:wmo:42046:1,2008-12-03T12:30:00Z,27.8903,-94.0367,-999.0,22222222 
TABS,ioos:station:wmo:42046:1,2008-12-03T13:00:00Z,27.8903,-94.0367,-999.0,22222222 
TABS,ioos:station:wmo:42046:1,2008-12-03T13:30:00Z,27.8903,-94.0367,-999.0,22222222 
TABS,ioos:station:wmo:42046:1,2008-12-03T14:00:00Z,27.8903,-94.0367,-999.0,22222222 
TABS,ioos:station:wmo:42046:1,2008-12-03T14:30:00Z,27.8903,-94.0367,-999.0,22222222 
TABS,ioos:station:wmo:42046:1,2008-12-03T15:00:00Z,27.8903,-94.0367,-999.0,22222222 
TABS,ioos:station:wmo:42046:1,2008-12-03T15:30:00Z,27.8903,-94.0367,-999.0,22222222 
TABS,ioos:station:wmo:42046:1,2008-12-03T16:00:00Z,27.8903,-94.0367,-999.0,22222222 
TABS,ioos:station:wmo:42046:1,2008-12-03T16:30:00Z,27.8903,-94.0367,-999.0,22222222 
TABS,ioos:station:wmo:42046:1,2008-12-03T17:00:00Z,27.8903,-94.0367,-999.0,22222222 
TABS,ioos:station:wmo:42046:1,2008-12-03T17:30:00Z,27.8903,-94.0367,-999.0,22222222 
TABS,ioos:station:wmo:42046:1,2008-12-03T18:00:00Z,27.8903,-94.0367,-999.0,22222222 
TABS,ioos:station:wmo:42046:1,2008-12-03T18:30:00Z,27.8903,-94.0367,-999.0,22222222 
TABS,ioos:station:wmo:42046:1,2008-12-03T19:00:00Z,27.8903,-94.0367,-999.0,22222222 
TABS,ioos:station:wmo:42046:1,2008-12-03T19:30:00Z,27.8903,-94.0367,-999.0,22222222 
TABS,ioos:station:wmo:42046:1,2008-12-03T20:00:00Z,27.8903,-94.0367,-999.0,22222222 
TABS,ioos:station:wmo:42046:1,2008-12-03T20:30:00Z,27.8903,-94.0367,-999.0,22222222 
TABS,ioos:station:wmo:42046:1,2008-12-03T21:00:00Z,27.8903,-94.0367,-999.0,22222222 
TABS,ioos:station:wmo:42046:1,2008-12-03T21:30:00Z,27.8903,-94.0367,-999.0,22222222 
TABS,ioos:station:wmo:42046:1,2008-12-03T22:00:00Z,27.8903,-94.0367,-999.0,22222222 
TABS,ioos:station:wmo:42046:1,2008-12-03T22:30:00Z,27.8903,-94.0367,-999.0,22222222 
TABS,ioos:station:wmo:42046:1,2008-12-03T23:00:00Z,27.8903,-94.0367,-999.0,22222222 
TABS,ioos:station:wmo:42046:1,2008-12-03T23:30:00Z,27.8903,-94.0367,-999.0,22222222 
TABS,ioos:station:wmo:42046:1,2008-12-04T00:00:00Z,27.8903,-94.0367,-999.0,22222222 
TABS,ioos:station:wmo:42046:1,2008-12-04T00:30:00Z,27.8903,-94.0367,-999.0,22222222 
TABS,ioos:station:wmo:42046:1,2008-12-04T01:00:00Z,27.8903,-94.0367,-999.0,22222222 
TABS,ioos:station:wmo:42046:1,2008-12-04T01:30:00Z,27.8903,-94.0367,-999.0,22222222 
TABS,ioos:station:wmo:42046:1,2008-12-04T02:00:00Z,27.8903,-94.0367,-999.0,22222222 
TABS,ioos:station:wmo:42046:1,2008-12-04T02:30:00Z,27.8903,-94.0367,-999.0,22222222 
TABS,ioos:station:wmo:42046:1,2008-12-04T03:00:00Z,27.8903,-94.0367,80.6,22222222 
TABS,ioos:station:wmo:42046:1,2008-12-04T03:00:00Z,27.8903,-94.0367,80.6,11111222 
TABS,ioos:station:wmo:42046:1,2008-12-04T03:30:00Z,27.8903,-94.0367,-999.0,22222222 
TABS,ioos:station:wmo:42046:1,2008-12-04T04:00:00Z,27.8903,-94.0367,-999.0,22222222 
TABS,ioos:station:wmo:42046:1,2008-12-04T04:30:00Z,27.8903,-94.0367,-999.0,22222222 
TABS,ioos:station:wmo:42046:1,2008-12-04T05:00:00Z,27.8903,-94.0367,-999.0,22222222 
TABS,ioos:station:wmo:42046:1,2008-12-04T05:30:00Z,27.8903,-94.0367,-999.0,22222222 
TABS,ioos:station:wmo:42046:1,2008-12-04T06:00:00Z,27.8903,-94.0367,-999.0,22222222 
TABS,ioos:station:wmo:42046:1,2008-12-04T06:30:00Z,27.8903,-94.0367,-999.0,22222222 
TABS,ioos:station:wmo:42046:1,2008-12-04T07:00:00Z,27.8903,-94.0367,-999.0,22222222 
TABS,ioos:station:wmo:42046:1,2008-12-04T07:30:00Z,27.8903,-94.0367,-999.0,22222222 
TABS,ioos:station:wmo:42046:1,2008-12-04T08:00:00Z,27.8903,-94.0367,-999.0,22222222 
TABS,ioos:station:wmo:42046:1,2008-12-04T08:30:00Z,27.8903,-94.0367,-999.0,22222222 
TABS,ioos:station:wmo:42046:1,2008-12-04T09:00:00Z,27.8903,-94.0367,-999.0,22222222 
TABS,ioos:station:wmo:42046:1,2008-12-04T09:30:00Z,27.8903,-94.0367,-999.0,22222222 
TABS,ioos:station:wmo:42046:1,2008-12-04T10:00:00Z,27.8903,-94.0367,-999.0,22222222 
TABS,ioos:station:wmo:42046:1,2008-12-04T10:30:00Z,27.8903,-94.0367,-999.0,22222222 
TABS,ioos:station:wmo:42046:1,2008-12-04T11:00:00Z,27.8903,-94.0367,-999.0,22222222 
TABS,ioos:station:wmo:42046:1,2008-12-04T11:30:00Z,27.8903,-94.0367,40.7,22222222 
TABS,ioos:station:wmo:42046:1,2008-12-04T11:30:00Z,27.8903,-94.0367,40.7,11111222 
TABS,ioos:station:wmo:42046:1,2008-12-04T12:00:00Z,27.8903,-94.0367,22.6,22222222 
TABS,ioos:station:wmo:42046:1,2008-12-04T12:00:00Z,27.8903,-94.0367,22.6,11111222 
TABS,ioos:station:wmo:42046:1,2008-12-04T12:30:00Z,27.8903,-94.0367,21.4,22222222 
TABS,ioos:station:wmo:42046:1,2008-12-04T12:30:00Z,27.8903,-94.0367,21.4,11111222 
TABS,ioos:station:wmo:42046:1,2008-12-04T13:00:00Z,27.8903,-94.0367,25.4,22222222 
TABS,ioos:station:wmo:42046:1,2008-12-04T13:00:00Z,27.8903,-94.0367,25.4,11111222 
TABS,ioos:station:wmo:42046:1,2008-12-04T13:30:00Z,27.8903,-94.0367,28.2,22222222 
TABS,ioos:station:wmo:42046:1,2008-12-04T13:30:00Z,27.8903,-94.0367,28.2,11111222 
TABS,ioos:station:wmo:42046:1,2008-12-04T14:00:00Z,27.8903,-94.0367,56.6,22222222 
TABS,ioos:station:wmo:42046:1,2008-12-04T14:00:00Z,27.8903,-94.0367,56.6,11111222 
TABS,ioos:station:wmo:42046:1,2008-12-04T14:30:00Z,27.8903,-94.0367,61.1,22222222 
TABS,ioos:station:wmo:42046:1,2008-12-04T14:30:00Z,27.8903,-94.0367,61.1,11111222 
TABS,ioos:station:wmo:42046:1,2008-12-04T15:00:00Z,27.8903,-94.0367,92.6,22222222 
TABS,ioos:station:wmo:42046:1,2008-12-04T15:00:00Z,27.8903,-94.0367,92.6,11111222 
TABS,ioos:station:wmo:42046:1,2008-12-04T15:30:00Z,27.8903,-94.0367,81.0,22222222 
TABS,ioos:station:wmo:42046:1,2008-12-04T15:30:00Z,27.8903,-94.0367,81.0,11111222 
TABS,ioos:station:wmo:42046:1,2008-12-04T16:00:00Z,27.8903,-94.0367,78.5,22222222 
TABS,ioos:station:wmo:42046:1,2008-12-04T16:00:00Z,27.8903,-94.0367,78.5,11111222 
TABS,ioos:station:wmo:42046:1,2008-12-04T16:30:00Z,27.8903,-94.0367,80.2,22222222 
TABS,ioos:station:wmo:42046:1,2008-12-04T16:30:00Z,27.8903,-94.0367,80.2,11111222 
TABS,ioos:station:wmo:42046:1,2008-12-04T17:00:00Z,27.8903,-94.0367,73.3,22222222 
TABS,ioos:station:wmo:42046:1,2008-12-04T17:00:00Z,27.8903,-94.0367,73.3,11111222 
TABS,ioos:station:wmo:42046:1,2008-12-04T17:30:00Z,27.8903,-94.0367,65.2,22222222 
TABS,ioos:station:wmo:42046:1,2008-12-04T17:30:00Z,27.8903,-94.0367,65.2,11111222 
TABS,ioos:station:wmo:42046:1,2008-12-04T18:00:00Z,27.8903,-94.0367,-999.0,22222222 
TABS,ioos:station:wmo:42046:1,2008-12-04T18:30:00Z,27.8903,-94.0367,-999.0,22222222 
TABS,ioos:station:wmo:42046:1,2008-12-04T19:00:00Z,27.8903,-94.0367,13.6,22222222 
TABS,ioos:station:wmo:42046:1,2008-12-04T19:00:00Z,27.8903,-94.0367,13.6,11111222 
TABS,ioos:station:wmo:42046:1,2008-12-04T19:30:00Z,27.8903,-94.0367,98.6,22222222 
TABS,ioos:station:wmo:42046:1,2008-12-04T19:30:00Z,27.8903,-94.0367,98.6,11111222 
TABS,ioos:station:wmo:42046:1,2008-12-04T20:00:00Z,27.8903,-94.0367,-999.0,22222222 
TABS,ioos:station:wmo:42046:1,2008-12-04T20:30:00Z,27.8903,-94.0367,-999.0,22222222 
TABS,ioos:station:wmo:42046:1,2008-12-04T21:00:00Z,27.8903,-94.0367,-999.0,22222222 
TABS,ioos:station:wmo:42046:1,2008-12-04T21:30:00Z,27.8903,-94.0367,9.4,22222222 
TABS,ioos:station:wmo:42046:1,2008-12-04T21:30:00Z,27.8903,-94.0367,9.4,11111222 
TABS,ioos:station:wmo:42046:1,2008-12-04T22:00:00Z,27.8903,-94.0367,-999.0,22222222 
TABS,ioos:station:wmo:42046:1,2008-12-04T22:30:00Z,27.8903,-94.0367,-999.0,22222222 
TABS,ioos:station:wmo:42046:1,2008-12-04T23:00:00Z,27.8903,-94.0367,-999.0,22222222 
TABS,ioos:station:wmo:42046:1,2008-12-04T23:30:00Z,27.8903,-94.0367,-999.0,22222222 
TABS,ioos:station:wmo:42046:1,2008-12-05T00:00:00Z,27.8903,-94.0367,-999.0,22222222 
TABS,ioos:station:wmo:42046:1,2008-12-05T00:30:00Z,27.8903,-94.0367,-999.0,22222222 
TABS,ioos:station:wmo:42046:1,2008-12-05T01:00:00Z,27.8903,-94.0367,36.7,22222222 
TABS,ioos:station:wmo:42046:1,2008-12-05T01:00:00Z,27.8903,-94.0367,36.7,11111222 
TABS,ioos:station:wmo:42046:1,2008-12-05T01:30:00Z,27.8903,-94.0367,-999.0,22222222 
TABS,ioos:station:wmo:42046:1,2008-12-05T02:00:00Z,27.8903,-94.0367,-999.0,22222222 
TABS,ioos:station:wmo:42046:1,2008-12-05T02:30:00Z,27.8903,-94.0367,-999.0,22222222 
TABS,ioos:station:wmo:42046:1,2008-12-05T03:00:00Z,27.8903,-94.0367,-999.0,22222222 
TABS,ioos:station:wmo:42046:1,2008-12-05T03:30:00Z,27.8903,-94.0367,-999.0,22222222 
TABS,ioos:station:wmo:42046:1,2008-12-05T04:00:00Z,27.8903,-94.0367,-999.0,22222222 
TABS,ioos:station:wmo:42046:1,2008-12-05T04:30:00Z,27.8903,-94.0367,-999.0,22222222 
TABS,ioos:station:wmo:42046:1,2008-12-05T05:00:00Z,27.8903,-94.0367,34.9,22222222 
TABS,ioos:station:wmo:42046:1,2008-12-05T05:00:00Z,27.8903,-94.0367,34.9,11111222 
TABS,ioos:station:wmo:42046:1,2008-12-05T05:30:00Z,27.8903,-94.0367,80.5,22222222 
TABS,ioos:station:wmo:42046:1,2008-12-05T05:30:00Z,27.8903,-94.0367,80.5,11111222 
TABS,ioos:station:wmo:42046:1,2008-12-05T06:00:00Z,27.8903,-94.0367,90.9,22222222 
TABS,ioos:station:wmo:42046:1,2008-12-05T06:00:00Z,27.8903,-94.0367,90.9,11111222 
TABS,ioos:station:wmo:42046:1,2008-12-05T06:30:00Z,27.8903,-94.0367,-999.0,22222222 
TABS,ioos:station:wmo:42046:1,2008-12-05T07:00:00Z,27.8903,-94.0367,-999.0,22222222 
TABS,ioos:station:wmo:42046:1,2008-12-05T07:30:00Z,27.8903,-94.0367,-999.0,22222222 
TABS,ioos:station:wmo:42046:1,2008-12-05T08:00:00Z,27.8903,-94.0367,-999.0,22222222 
TABS,ioos:station:wmo:42046:1,2008-12-05T08:30:00Z,27.8903,-94.0367,-999.0,22222222 
TABS,ioos:station:wmo:42046:1,2008-12-05T09:00:00Z,27.8903,-94.0367,-999.0,22222222 
TABS,ioos:station:wmo:42046:1,2008-12-05T09:30:00Z,27.8903,-94.0367,57.5,22222222 
TABS,ioos:station:wmo:42046:1,2008-12-05T09:30:00Z,27.8903,-94.0367,57.5,11111222 
TABS,ioos:station:wmo:42046:1,2008-12-05T10:00:00Z,27.8903,-94.0367,-999.0,22222222 
TABS,ioos:station:wmo:42046:1,2008-12-05T10:30:00Z,27.8903,-94.0367,-999.0,22222222 
TABS,ioos:station:wmo:42046:1,2008-12-05T11:00:00Z,27.8903,-94.0367,43.0,22222222 
TABS,ioos:station:wmo:42046:1,2008-12-05T11:00:00Z,27.8903,-94.0367,43.0,11111222 
TABS,ioos:station:wmo:42046:1,2008-12-05T11:30:00Z,27.8903,-94.0367,48.0,22222222 
TABS,ioos:station:wmo:42046:1,2008-12-05T11:30:00Z,27.8903,-94.0367,48.0,11111222 
TABS,ioos:station:wmo:42046:1,2008-12-05T12:00:00Z,27.8903,-94.0367,99.2,22222222 
TABS,ioos:station:wmo:42046:1,2008-12-05T12:00:00Z,27.8903,-94.0367,99.2,11111222 
TABS,ioos:station:wmo:42046:1,2008-12-05T12:30:00Z,27.8903,-94.0367,-999.0,22222222 
TABS,ioos:station:wmo:42046:1,2008-12-05T13:00:00Z,27.8903,-94.0367,-999.0,22222222 
TABS,ioos:station:wmo:42046:1,2008-12-05T13:30:00Z,27.8903,-94.0367,11.0,22222222 
TABS,ioos:station:wmo:42046:1,2008-12-05T13:30:00Z,27.8903,-94.0367,11.0,11111222 
TABS,ioos:station:wmo:42046:1,2008-12-05T14:00:00Z,27.8903,-94.0367,84.6,22222222 
TABS,ioos:station:wmo:42046:1,2008-12-05T14:00:00Z,27.8903,-94.0367,84.6,11111222 
TABS,ioos:station:wmo:42046:1,2008-12-05T14:30:00Z,27.8903,-94.0367,71.6,22222222 
TABS,ioos:station:wmo:42046:1,2008-12-05T14:30:00Z,27.8903,-94.0367,71.6,11111222 
TABS,ioos:station:wmo:42046:1,2008-12-05T15:00:00Z,27.8903,-94.0367,-999.0,22222222 
TABS,ioos:station:wmo:42046:1,2008-12-05T15:30:00Z,27.8903,-94.0367,-999.0,22222222 
TABS,ioos:station:wmo:42046:1,2008-12-05T16:00:00Z,27.8903,-94.0367,-999.0,22222222 
TABS,ioos:station:wmo:42046:1,2008-12-05T16:30:00Z,27.8903,-94.0367,55.5,22222222 
TABS,ioos:station:wmo:42046:1,2008-12-05T16:30:00Z,27.8903,-94.0367,55.5,11111222 
TABS,ioos:station:wmo:42046:1,2008-12-05T17:00:00Z,27.8903,-94.0367,-999.0,22222222 
TABS,ioos:station:wmo:42046:1,2008-12-05T17:30:00Z,27.8903,-94.0367,-999.0,22222222 
TABS,ioos:station:wmo:42046:1,2008-12-05T18:00:00Z,27.8903,-94.0367,31.9,22222222 
TABS,ioos:station:wmo:42046:1,2008-12-05T18:00:00Z,27.8903,-94.0367,31.9,11111222 
TABS,ioos:station:wmo:42046:1,2008-12-05T18:30:00Z,27.8903,-94.0367,-999.0,22222222 
TABS,ioos:station:wmo:42046:1,2008-12-05T19:00:00Z,27.8903,-94.0367,95.6,22222222 
TABS,ioos:station:wmo:42046:1,2008-12-05T19:00:00Z,27.8903,-94.0367,95.6,11111222 
TABS,ioos:station:wmo:42046:1,2008-12-05T19:30:00Z,27.8903,-94.0367,96.0,22222222 
TABS,ioos:station:wmo:42046:1,2008-12-05T19:30:00Z,27.8903,-94.0367,96.0,11111222 
TABS,ioos:station:wmo:42046:1,2008-12-05T20:00:00Z,27.8903,-94.0367,-999.0,22222222 
TABS,ioos:station:wmo:42046:1,2008-12-05T20:30:00Z,27.8903,-94.0367,-999.0,22222222 
TABS,ioos:station:wmo:42046:1,2008-12-05T21:00:00Z,27.8903,-94.0367,-999.0,22222222 
TABS,ioos:station:wmo:42046:1,2008-12-05T21:30:00Z,27.8903,-94.0367,-999.0,22222222 
TABS,ioos:station:wmo:42046:1,2008-12-05T22:00:00Z,27.8903,-94.0367,-999.0,22222222 
TABS,ioos:station:wmo:42046:1,2008-12-05T22:30:00Z,27.8903,-94.0367,-999.0,22222222 
TABS,ioos:station:wmo:42046:1,2008-12-05T23:00:00Z,27.8903,-94.0367,-999.0,22222222 
TABS,ioos:station:wmo:42046:1,2008-12-05T23:30:00Z,27.8903,-94.0367,-999.0,22222222 
TABS,ioos:station:wmo:42046:1,2008-12-06T00:00:00Z,27.8903,-94.0367,2.9,22222222 
TABS,ioos:station:wmo:42046:1,2008-12-06T00:00:00Z,27.8903,-94.0367,2.9,11111222 